#timestamp,LO_Frequency,Hit,StdDev 
1608847795.2,286046990.0,P
1608847815.0,286046987.3,P
1608847815.9,286046987.3,P
1608847835.8,286046987.9,Y
1608847855.6,286046999.5,P
1608847875.4,286046999.0,N
1608847895.3,286046999.6,N
1608847915.1,286046999.6,N
1608847935.8,286046999.5,N
1608847955.7,286046997.2,N
1608847975.5,286046999.5,N
1608847995.4,286046996.4,N
1608848015.2,286046993.3,N
1608848035.0,286046993.8,N
1608848035.9,286046993.8,N
1608848055.8,286046995.9,N
1608848075.6,286046994.4,N
1608848095.5,286046992.7,N
1608848115.3,286046992.3,N
1608848135.1,286046990.6,N
1608848185.9,286046992.9,E
1608848195.8,286046996.0,N
1608848215.7,286046997.1,P
1608848235.5,286046996.6,P
1608848255.3,286046999.4,N
1608848275.2,286046998.3,N
1608848295.0,286046998.3,N
1608848295.9,286046998.3,N
1608848315.8,286046997.3,N
1608848335.6,286046996.0,Y
1608848355.4,286046997.7,P
1608848375.3,286046995.4,P
1608848395.1,286046994.9,P
1608848415.8,286046996.2,N
1608848435.7,286046996.4,Y
1608848455.5,286046999.5,P
1608848475.4,286046999.2,N
1608848495.2,286046996.8,N
1608848515.0,286046997.0,N
1608848515.9,286046997.0,N
1608848535.8,286046997.4,N
1608848555.6,286046994.9,Y
1608848575.5,286046998.2,P
1608848595.3,286046998.1,P
1608848615.1,286046998.8,P
1608848635.9,286046998.7,Y
1608848655.7,286047000.5,P
1608848675.5,286046999.9,N
1608848695.4,286047000.6,N
1608848715.2,286047001.0,N
1608848735.1,286047001.0,N
1608848736.0,286047001.0,N
1608848755.8,286046998.9,N
1608848775.6,286046998.4,N
1608848795.5,286046998.6,N
1608848815.3,286046999.3,N
1608848835.1,286046999.0,N
1608848855.9,286046996.9,N
1608848875.7,286046996.8,N
1608848895.6,286046997.1,N
1608848915.4,286046996.8,N
1608848935.2,286046997.4,N
1608848955.1,286046995.3,Y
1608848956.0,286046995.3,P
1608848975.8,286046996.7,N
1608848995.7,286046996.7,N
1608849015.5,286046997.8,N
1608849035.3,286046997.7,N
1608849055.2,286046999.2,N
1608849075.9,286046998.2,N
1608849095.7,286046998.3,N
1608849115.6,286046999.3,N
1608849135.4,286046998.8,N
1608849155.2,286046998.1,N
1608849175.1,286046999.0,N
1608849176.0,286046999.0,N
1608849195.8,286046999.3,N
1608849215.7,286046997.4,N
1608849235.5,286046997.7,N
1608849255.3,286046999.5,N
1608849275.2,286046999.4,N
1608849295.0,286046998.4,N
1608849295.9,286046998.4,N
1608849315.8,286046997.2,N
1608849335.6,286046997.1,N
1608849355.4,286046997.1,N
1608849375.3,286046999.3,N
1608849395.1,286046998.4,N
1608849415.8,286046999.0,N
1608849435.7,286046998.4,N
1608849455.5,286046998.7,N
1608849475.4,286046996.5,Y
1608849495.2,286046998.6,P
1608849515.0,286046999.1,P
1608849515.9,286046999.1,N
1608849535.8,286046999.0,N
1608849555.6,286046999.3,N
1608849575.4,286046999.0,N
1608849595.3,286047001.2,Y
1608849615.1,286047000.7,P
1608849635.9,286046998.6,N
1608849655.7,286047000.3,N
1608849675.5,286047001.0,N
1608849695.4,286047000.8,N
1608849715.2,286047002.5,N
1608849735.0,286047000.3,N
1608849735.9,286047000.3,N
1608849755.8,286046998.5,N
1608849775.6,286046998.3,N
1608849795.5,286047002.8,N
1608849815.3,286047000.6,N
1608849835.1,286046999.4,N
1608849855.9,286046999.0,N
1608849875.7,286047000.0,N
1608849895.5,286046998.8,N
1608849915.4,286046996.6,N
1608849935.2,286046998.9,N
1608849955.1,286046998.4,N
1608849956.0,286046998.4,N
1608849975.8,286046996.9,N
1608849995.6,286046997.7,N
1608850015.5,286046997.9,N
1608850035.3,286046997.3,N
1608850055.1,286046996.8,N
1608850075.9,286046997.5,N
1608850095.7,286046995.0,Y
1608850115.6,286046995.1,P
1608850135.4,286046996.2,N
1608850155.2,286046996.4,N
1608850175.1,286046991.8,Y
1608850176.0,286046991.8,P
1608850195.8,286046996.8,N
1608850215.6,286046998.3,N
1608850235.5,286046999.3,N
1608850255.3,286047001.2,N
1608850275.2,286046998.5,N
1608850295.9,286046998.7,N
1608850315.7,286046996.6,N
1608850335.6,286046999.3,N
1608850355.4,286046999.1,N
1608850375.2,286046999.0,N
1608850395.1,286046996.8,N
1608850396.0,286046996.8,N
1608850415.8,286046995.4,N
1608850435.7,286046995.1,N
1608850455.5,286046995.2,N
1608850475.3,286046998.0,N
1608850495.2,286046997.8,N
1608850515.0,286046995.3,N
1608850515.9,286046995.3,N
1608850535